Photometre #41[Polarized_P] Saada AOT

File : 20220826_41.hum

26/08/2022,06:47:12,TEMP=35.8,BA=5.28,STAT.h
26/08/2022,06:50:13,TEMP=35.8,BA=5.32,STAT.h
26/08/2022,06:53:44,TEMP=35.8,BA=5.32,STAT.h
26/08/2022,06:57:54,TEMP=35.8,BA=5.32,STAT.h
26/08/2022,07:02:55,TEMP=35.8,BA=5.32,STAT.h
26/08/2022,07:09:04,TEMP=35.8,BA=5.32,STAT.h
26/08/2022,07:16:47,TEMP=35.8,BA=5.36,STAT.h
26/08/2022,07:20:46,TEMP=20.4,BA=5.36,STAT.A=Abs.,ExtBa=13.26
26/08/2022,07:24:52,TEMP=20.7,BA=5.36,STAT.A=Abs.,ExtBa=13.16
26/08/2022,07:29:27,TEMP=20.9,BA=5.36,STAT.A=Abs.,ExtBa=13.16
26/08/2022,07:34:39,TEMP=21.1,BA=5.24,STAT.A=Abs.,ExtBa=13.17
26/08/2022,07:40:35,TEMP=21.3,BA=5.40,STAT.C=Abs.,ExtBa=13.17
26/08/2022,07:53:48,TEMP=23.3,BA=5.28,STAT.A=Abs.,ExtBa=13.08
26/08/2022,07:55:33,TEMP=23.0,BA=5.28,STAT.A=Abs.,ExtBa=13.09
26/08/2022,08:04:48,TEMP=22.3,BA=5.44,STAT.A=Abs.,ExtBa=13.30
26/08/2022,08:16:09,TEMP=22.8,BA=5.48,STAT.A=Abs.,ExtBa=13.48
26/08/2022,08:30:07,TEMP=23.5,BA=5.36,STAT.B=Abs.,ExtBa=13.65
26/08/2022,08:58:42,TEMP=25.1,BA=5.48,STAT.B=Abs.,ExtBa=14.03
26/08/2022,09:05:25,TEMP=25.8,BA=5.36,STAT.D=Abs.,ExtBa=13.23
26/08/2022,09:20:07,TEMP=26.1,BA=5.40,STAT.D=Abs.,ExtBa=14.14
26/08/2022,09:35:09,TEMP=26.8,BA=5.48,STAT.F
26/08/2022,09:50:07,TEMP=28.1,BA=5.40,STAT.D=Abs.,ExtBa=13.82
26/08/2022,10:05:07,TEMP=27.6,BA=5.48,STAT.D=Abs.,ExtBa=14.30
26/08/2022,10:20:08,TEMP=28.5,BA=5.40,STAT.D=Abs.,ExtBa=14.36
26/08/2022,10:35:09,TEMP=29.5,BA=5.52,STAT.F
26/08/2022,10:50:08,TEMP=29.8,BA=5.40,STAT.D=Abs.,ExtBa=14.40
26/08/2022,11:05:05,TEMP=30.1,BA=5.52,STAT.D=Abs.,ExtBa=14.40
26/08/2022,11:20:05,TEMP=30.3,BA=5.40,STAT.D=Abs.,ExtBa=14.39
26/08/2022,11:35:07,TEMP=31.0,BA=5.52,STAT.F
26/08/2022,11:50:06,TEMP=31.8,BA=5.40,STAT.D=Abs.,ExtBa=14.36
26/08/2022,12:05:06,TEMP=32.4,BA=5.52,STAT.D=Abs.,ExtBa=14.36
26/08/2022,12:20:06,TEMP=33.1,BA=5.40,STAT.D=Abs.,ExtBa=14.33
26/08/2022,12:35:07,TEMP=33.3,BA=5.52,STAT.F
26/08/2022,12:50:06,TEMP=34.1,BA=5.44,STAT.D=Abs.,ExtBa=14.29
26/08/2022,13:05:06,TEMP=34.4,BA=5.48,STAT.D=Abs.,ExtBa=14.26
26/08/2022,13:20:06,TEMP=35.0,BA=5.40,STAT.D=Abs.,ExtBa=14.24
26/08/2022,13:35:07,TEMP=35.5,BA=5.48,STAT.F
26/08/2022,13:50:05,TEMP=36.2,BA=5.40,STAT.D=Abs.,ExtBa=14.17
26/08/2022,14:05:05,TEMP=36.6,BA=5.48,STAT.D=Abs.,ExtBa=14.13
26/08/2022,14:20:05,TEMP=36.3,BA=5.40,STAT.D=Abs.,ExtBa=14.10
26/08/2022,14:35:07,TEMP=36.9,BA=5.44,STAT.F
26/08/2022,14:50:05,TEMP=37.9,BA=5.36,STAT.D=Abs.,ExtBa=14.05
26/08/2022,15:05:05,TEMP=37.8,BA=5.44,STAT.D=Abs.,ExtBa=14.02
26/08/2022,15:20:05,TEMP=37.6,BA=5.36,STAT.D=Abs.,ExtBa=13.95
26/08/2022,15:35:06,TEMP=37.8,BA=5.44,STAT.F
26/08/2022,15:50:04,TEMP=38.3,BA=5.36,STAT.D=Abs.,ExtBa=13.61
26/08/2022,16:05:04,TEMP=37.5,BA=5.40,STAT.D=Abs.,ExtBa=13.71
26/08/2022,16:11:30,TEMP=37.4,BA=5.40,STAT.B=Abs.,ExtBa=13.60
26/08/2022,16:40:06,TEMP=36.9,BA=5.36,STAT.B=Abs.,ExtBa=13.50
26/08/2022,16:54:04,TEMP=36.6,BA=5.40,STAT.A=Abs.,ExtBa=13.45
26/08/2022,17:05:25,TEMP=36.1,BA=5.40,STAT.A=Abs.,ExtBa=13.38
26/08/2022,17:14:50,TEMP=36.3,BA=5.40,STAT.A=Abs.,ExtBa=13.33
26/08/2022,17:22:48,TEMP=36.5,BA=5.40,STAT.A=Abs.,ExtBa=13.23
26/08/2022,17:29:38,TEMP=36.2,BA=5.40,STAT.C=Abs.,ExtBa=13.40
26/08/2022,17:42:50,TEMP=36.9,BA=5.36,STAT.A=Abs.,ExtBa=13.31
26/08/2022,17:44:32,TEMP=36.4,BA=5.36,STAT.A=Abs.,ExtBa=13.33
26/08/2022,17:46:12,TEMP=36.1,BA=5.36,STAT.A=Abs.,ExtBa=13.32
26/08/2022,17:49:26,TEMP=35.5,BA=5.36,STAT.A=Abs.,ExtBa=13.35
26/08/2022,17:53:06,TEMP=35.1,BA=5.32,STAT.B=Abs.,ExtBa=13.37
26/08/2022,18:00:49,TEMP=34.9,BA=5.36,STAT.A=Abs.,ExtBa=13.34
26/08/2022,18:06:58,TEMP=34.3,BA=5.36,STAT.A=Abs.,ExtBa=13.37
26/08/2022,18:11:59,TEMP=34.1,BA=5.32,STAT.A=Abs.,ExtBa=13.33
26/08/2022,18:16:09,TEMP=34.0,BA=5.32,STAT.A=Abs.,ExtBa=13.35
26/08/2022,18:19:40,TEMP=33.8,BA=5.32,STAT.A=Abs.,ExtBa=13.34
26/08/2022,18:22:40,TEMP=33.7,BA=5.28,STAT.A=Abs.,ExtBa=13.33